Regional Weather Roundup
Issued by NWS Newport/Morehead, NC

Current Version | Previous Version | Text Only | Print | Product List | Glossary On
Versions: 1 2 3 4 5 6 7 8 9 10 11 12 13 14 15 16 17 18 19 20 21 22 23 24 25 26 27 28 29 30 31 32 33 34 35 36 37 38 39 40 41 42 43 44 45 46 47 48 49 50
862
ASUS42 KMHX 220513
RWRMHX
WEATHER ROUNDUP FOR EASTERN NORTH CAROLINA
NATIONAL WEATHER SERVICE NEWPORT/MOREHEAD CITY NC
100 AM EDT FRI MAY 22 2015

NOTE: "FAIR" INDICATES FEW OR NO CLOUDS BELOW 12,000 FEET
WITH NO SIGNIFICANT WEATHER AND/OR OBSTRUCTIONS TO VISIBILITY

NCZ015>017-031-032-045>047-102-103-220600-
NORTH COAST

CITY           SKY/WX    TMP DP  RH WIND       PRES   REMARKS
EDENTON        CLOUDY    58  55  88 N9        29.93S
ELIZABETH CITY CLOUDY    59  55  87 NW18      29.93S
KITTY HAWK     CLOUDY    59  56  90 N8        29.89F
MANTEO         CLOUDY    60  56  87 N12G18    29.91S

$$

NCZ045>047-081-094-103-104-220600-
CENTRAL COAST

CITY           SKY/WX    TMP DP  RH WIND       PRES   REMARKS
FRISCO         CLOUDY    61  57  87 N12G22    29.88F
SWANQUARTER      N/A     61 N/A N/A N9        29.85S

$$

NCZ095-097-098-100-101-220600-
SOUTHERN COAST

CITY           SKY/WX    TMP DP  RH WIND       PRES   REMARKS
BEAUFORT       PTCLDY    61  59  93 VRB3      29.92R
CEDAR ISLAND     N/A     64 N/A N/A NW18G26   29.94S
JACKSONVILLE   CLOUDY    61  58  90 NW9       29.94R
PINEY ISLAND   PTCLDY   N/A N/A N/A N15       29.91R
WILMINGTON     CLOUDY    64  59  83 NW7       29.97R


$$

NCZ011>013-027>030-043-044-078>080-089-090>093-098-220600-
COASTAL PLAIN

CITY           SKY/WX    TMP DP  RH WIND       PRES   REMARKS
AHOSKIE        CLOUDY    56  53  88 N8        29.96S
CLINTON        MOCLDY    62  58  88 N6        29.98R
ELIZABETHTOWN  CLOUDY    63  62  96 CALM      29.98R
GOLDSBORO      CLOUDY    60  56  87 N8        29.95R
GREENVILLE     CLOUDY    59  55  88 N8        29.97R
HAVELOCK       CLOUDY    62  57  83 N12       29.93R
KENANSVILLE    CLOUDY    60  57  90 NW6       29.98R
KINSTON        CLOUDY    60  57  90 N8        29.96R
NEW BERN       CLOUDY    61  57  87 N12       29.93R
RICHLANDS      CLOUDY    61  54  77 W7        29.97R
ROCKY MOUNT    CLOUDY    59  55  87 N8        29.97R
WASHINGTON     CLOUDY   N/A N/A N/A N9        29.94R
WHITEVILLE     CLOUDY    66  59  80 N3        29.97R

$$

AMZ130-135-150-152-154-156-158-170-250-252-270-ANZ085-086-088-633-658-670-220600-
MARINE OBSERVATIONS

STATION/POSITION TIME  TEMP    WIND        PRES    WAVE   SWELL
                       AIR SEA DIR/SP/G            HT/PER HT/PER
                 (UTC) (F)     (DEG/KT/KT) (MB)    (FT/S) (FT/S)
CHESAPEAKE LIGHT 0400   59     340/ 22/ 24 1013.0
64 E VA BEACH    0450   58 60  340/ 23/ 27 1010.1    9/ 7
DUCK             0400   60 67  340/ 18/ 21 1011.6
2 E DUCK         0411      65                N/A     6/ 6
OREGON INLET     0400   59 73  330/ 16/ 23 1012.5
13E OREGON INLT  0500      64                N/A     6/ 6
HATTERAS CG      0400   64 74  340/ 22/ 27 1011.5
DIAMOND BUOY     0450   65 76  350/ 23/ 27 1011.2    5/ 5   2/ 9
CAPE LOOKOUT     0500   63     350/  9/ 11 1012.7
BEAUFORT LAB     0400   63 75  360/ 15/ 18 1011.2
27 SE WRIGHTSVLE NOT AVBL
5 SE WRIGHTSVLE  0408   67 76   30/ 14/ 17 1012.9
225 S CAPE HAT   0450   76 75  230/ 16/ 19 1013.7    4/ 6   2/ 9
41 SE CHARLESTON 0450   78 76  250/ 12/ 14 1012.2    3/ 5   2/ 9

$$



USA.gov is the U.S. government's official web portal to all federal, state and local government web resources and services.